Weather History for Charlevoix, MI

Change the Weather History Date:

Monday, February 13, 2012

  Actual Average Record
Temperature  
Mean Temperature 28 °F -  
Max Temperature 32 °F 31 °F 41 °F (2011)
Min Temperature 25 °F 17 °F 3 °F (2007)
Degree Days  
Heating Degree Days 36    
Moisture  
Dew Point 16 °F    
Average Humidity 56    
Maximum Humidity 67    
Minimum Humidity 48    
Precipitation  
Precipitation 0.00 in - - ()
Sea Level Pressure  
Sea Level Pressure 29.95 in    
Wind  
Wind Speed 17 mph (WSW)    
Max Wind Speed 25 mph    
Max Gust Speed 30 mph    
Visibility 10 miles    
Events Snow    
Averages and records for this station are not official NWS values.
T = Trace of Precipitation, MM = Missing Value Source: NWS Daily Summary

Daily Weather History Graph

Daily Weather History Graph

Search for Another Location

Airport:

Trip Planner

Search our weather history database for the weather conditions in past years. The results will help you decide how hot, cold, wet, or windy it might be!

Date:

Astronomy

Feb. 13, 2012 Rise Set
Actual Time 7:46 AM EST 6:05 PM EST
Civil Twilight 7:15 AM EST 6:35 PM EST
Nautical Twilight 6:41 AM EST 7:10 PM EST
Astronomical Twilight 6:06 AM EST 7:44 PM EST
Moon 12:22 AM EST (2/13) 10:22 AM EST (2/13)
Length of Visible Light 11h 19m
Length of Day
10h 18m
Waning Gibbous, 62% of the Moon is Illuminated
Feb 13
Waning Gibbous
Feb 14
Last Quarter
Feb 21
New
Feb 29
First Quarter
Mar 8
Full

Hourly Weather History & Observations

Time (EST) Temp. Windchill Dew Point Humidity Pressure Visibility Wind Dir Wind Speed Gust Speed Precip Events Conditions
12:15 AM 31.5 °F 17.9 °F 18.7 °F 59% 30.00 in 10.0 mi West 25.3 mph 29.9 mph N/A   Clear
12:55 AM 30.9 °F 18.7 °F 17.4 °F 57% 30.00 in 10.0 mi West 19.6 mph 28.8 mph N/A   Clear
1:15 AM 30.7 °F 17.5 °F 17.8 °F 59% 30.00 in 10.0 mi West 23.0 mph 29.9 mph N/A   Clear
1:35 AM 30.2 °F 17.8 °F 13.6 °F 50% 30.00 in 10.0 mi West 19.6 mph 26.5 mph N/A   Clear
1:55 AM 29.7 °F 17.1 °F 14.7 °F 54% 30.00 in 10.0 mi West 19.6 mph 25.3 mph N/A   Clear
2:15 AM 29.7 °F 17.8 °F 15.1 °F 55% 30.00 in 10.0 mi West 17.3 mph 23.0 mph N/A   Clear
2:35 AM 29.1 °F 16.4 °F 15.1 °F 56% 30.00 in 10.0 mi West 19.6 mph 26.5 mph N/A   Clear
2:55 AM 28.8 °F 16.6 °F 14.2 °F 55% 30.00 in 10.0 mi West 17.3 mph 21.9 mph N/A   Clear
3:15 AM 28.4 °F 16.2 °F 13.3 °F 53% 30.00 in 10.0 mi West 17.3 mph 21.9 mph N/A   Clear
3:35 AM 28.0 °F 17.0 °F 12.9 °F 53% 30.00 in 10.0 mi West 13.8 mph 23.0 mph N/A   Clear
3:55 AM 27.7 °F 16.6 °F 13.8 °F 56% 29.99 in 10.0 mi West 13.8 mph 19.6 mph N/A   Clear
4:15 AM 27.3 °F 15.2 °F 14.5 °F 59% 29.99 in 10.0 mi West 16.1 mph - N/A   Clear
4:35 AM 27.1 °F 14.9 °F 14.4 °F 59% 30.00 in 10.0 mi West 16.1 mph 20.7 mph N/A   Clear
4:55 AM 27.3 °F 14.4 °F 13.8 °F 57% 30.00 in 10.0 mi West 18.4 mph - N/A   Clear
5:15 AM 27.1 °F 15.9 °F 13.5 °F 56% 30.00 in 10.0 mi West 13.8 mph - N/A   Clear
5:35 AM 26.8 °F 14.5 °F 13.6 °F 58% 30.00 in 10.0 mi West 16.1 mph 21.9 mph N/A   Clear
5:55 AM 26.6 °F 14.3 °F 13.5 °F 58% 29.99 in 10.0 mi West 16.1 mph 19.6 mph N/A   Clear
6:15 AM 26.6 °F 14.7 °F 13.8 °F 59% 29.99 in 10.0 mi West 15.0 mph - N/A   Clear
6:34 AM 26.4 °F 13.6 °F 13.5 °F 58% 29.99 in 10.0 mi West 17.3 mph - N/A   Clear
6:55 AM 26.6 °F 14.7 °F 14.5 °F 60% 29.99 in 10.0 mi West 15.0 mph 19.6 mph N/A   Clear
7:15 AM 26.4 °F 16.0 °F 15.4 °F 63% 29.99 in 10.0 mi West 11.5 mph - N/A   Clear
7:35 AM 26.2 °F 14.7 °F 14.9 °F 62% 29.98 in 10.0 mi West 13.8 mph 20.7 mph N/A   Clear
7:55 AM 25.7 °F 11.9 °F 14.4 °F 62% 29.98 in 10.0 mi West 19.6 mph 23.0 mph N/A   Clear
8:15 AM 26.2 °F 13.8 °F 14.2 °F 60% 29.98 in 10.0 mi West 16.1 mph 20.7 mph N/A   Clear
8:34 AM 27.1 °F 14.1 °F 14.2 °F 58% 29.99 in 10.0 mi West 18.4 mph 21.9 mph N/A   Clear
8:55 AM 27.9 °F 15.5 °F 14.7 °F 58% 29.99 in 10.0 mi West 17.3 mph - N/A   Clear
9:15 AM 28.4 °F 16.6 °F 14.9 °F 57% 29.99 in 10.0 mi West 16.1 mph 21.9 mph N/A   Clear
9:35 AM 28.8 °F 17.0 °F 14.7 °F 56% 29.99 in 10.0 mi West 16.1 mph 21.9 mph N/A   Clear
9:55 AM 29.3 °F 17.3 °F 15.4 °F 56% 29.99 in 10.0 mi West 17.3 mph 20.7 mph N/A   Clear
10:14 AM 29.5 °F 17.2 °F 14.9 °F 55% 29.99 in 10.0 mi West 18.4 mph - N/A   Clear
10:35 AM 30.2 °F 19.3 °F 14.9 °F 53% 29.99 in 10.0 mi West 15.0 mph 19.6 mph N/A   Clear
10:55 AM 30.6 °F 18.6 °F 15.3 °F 53% 29.99 in 10.0 mi West 18.4 mph 23.0 mph N/A   Clear
11:15 AM 31.1 °F 18.9 °F 16.3 °F 54% 30.00 in 10.0 mi WSW 19.6 mph 25.3 mph N/A   Clear
11:35 AM 31.1 °F 20.5 °F 17.4 °F 57% 29.99 in 10.0 mi WSW 15.0 mph 21.9 mph N/A   Clear
11:55 AM 30.9 °F 19.8 °F 17.4 °F 57% 29.98 in 10.0 mi WSW 16.1 mph 26.5 mph N/A   Clear
12:15 PM 31.3 °F 20.7 °F 17.1 °F 56% 29.98 in 10.0 mi WSW 15.0 mph 24.2 mph N/A   Clear
12:35 PM 31.3 °F 19.5 °F 15.8 °F 53% 29.97 in 10.0 mi WSW 18.4 mph 25.3 mph N/A   Clear
12:55 PM 31.5 °F 19.4 °F 17.2 °F 56% 29.96 in 10.0 mi WSW 19.6 mph 26.5 mph N/A   Clear
1:15 PM 31.8 °F 21.8 °F 15.3 °F 50% 29.96 in 10.0 mi WSW 13.8 mph 20.7 mph N/A   Clear
1:35 PM 31.8 °F 21.4 °F 14.0 °F 48% 29.95 in 10.0 mi SW 15.0 mph 23.0 mph N/A   Clear
1:55 PM 32.0 °F 21.2 °F 14.4 °F 48% 29.94 in 10.0 mi WSW 16.1 mph 21.9 mph N/A   Clear
2:15 PM 32.0 °F 20.5 °F 14.9 °F 49% 29.93 in 10.0 mi WSW 18.4 mph 25.3 mph N/A   Clear
2:34 PM 32.0 °F 20.8 °F 14.4 °F 48% 29.92 in 10.0 mi WSW 17.3 mph 27.6 mph N/A   Clear
2:55 PM 32.5 °F 20.8 °F 16.9 °F 53% 29.92 in 10.0 mi WSW 19.6 mph - N/A   Clear
3:15 PM 32.7 °F 23.0 °F 16.5 °F 51% 29.92 in 10.0 mi SW 13.8 mph 23.0 mph N/A   Clear
3:35 PM 32.9 °F 23.2 °F 16.7 °F 51% 29.91 in 10.0 mi SW 13.8 mph 19.6 mph N/A   Scattered Clouds
3:55 PM 32.9 °F 22.8 °F 16.7 °F 51% 29.90 in 10.0 mi SW 15.0 mph 20.7 mph N/A   Scattered Clouds
4:15 PM 32.7 °F 23.9 °F 16.7 °F 52% 29.89 in 10.0 mi SW 11.5 mph 23.0 mph N/A   Scattered Clouds
4:35 PM 32.0 °F 21.6 °F 15.4 °F 51% 29.89 in 10.0 mi WSW 15.0 mph - N/A   Scattered Clouds
4:55 PM 32.2 °F 22.3 °F 14.2 °F 48% 29.89 in 10.0 mi SW 13.8 mph 21.9 mph N/A   Overcast
5:15 PM 32.0 °F 23.0 °F 15.8 °F 51% 29.88 in 10.0 mi SW 11.5 mph - N/A   Overcast
5:35 PM 32.0 °F 23.0 °F 16.0 °F 52% 29.87 in 10.0 mi SW 11.5 mph - N/A   Overcast
5:55 PM 32.2 °F 23.2 °F 15.8 °F 51% 29.87 in 10.0 mi SW 11.5 mph 19.6 mph N/A   Overcast
6:14 PM 32.2 °F 22.7 °F 16.0 °F 51% 29.87 in 10.0 mi SW 12.7 mph 24.2 mph N/A   Overcast
6:35 PM 32.2 °F 22.7 °F 16.9 °F 53% 29.88 in 10.0 mi SW 12.7 mph 18.4 mph N/A   Overcast
6:55 PM 32.4 °F 23.0 °F 18.0 °F 55% 29.87 in 10.0 mi SW 12.7 mph - N/A   Overcast
7:15 PM 32.4 °F 22.1 °F 19.0 °F 58% 29.87 in 10.0 mi SW 15.0 mph 19.6 mph N/A   Overcast
7:35 PM 32.4 °F 23.5 °F 20.3 °F 61% 29.87 in 10.0 mi SSW 11.5 mph 17.3 mph N/A   Overcast
7:54 PM 32.2 °F 25.0 °F 20.3 °F 62% 29.87 in 10.0 mi SSW 8.1 mph - N/A   Overcast
8:15 PM 32.0 °F 24.2 °F 20.5 °F 63% 29.87 in 10.0 mi SSW 9.2 mph 17.3 mph N/A   Overcast
8:35 PM 32.2 °F 25.0 °F 20.5 °F 62% 29.87 in 10.0 mi SW 8.1 mph - N/A   Overcast
8:54 PM 32.4 °F 25.3 °F 20.5 °F 62% 29.87 in 10.0 mi SW 8.1 mph - N/A   Overcast
9:15 PM 32.2 °F 26.7 °F 20.7 °F 63% 29.87 in 10.0 mi SSW 5.8 mph 9.2 mph N/A   Overcast
9:35 PM 32.0 °F 25.6 °F 22.3 °F 67% 29.86 in 7.0 mi SSW 6.9 mph - N/A Snow Light Snow
9:54 PM 32.0 °F 26.4 °F 23.5 °F 71% 29.86 in 10.0 mi SSW 5.8 mph - N/A Snow Light Snow
10:15 PM 31.8 °F 22.8 °F 24.4 °F 74% 29.85 in 10.0 mi SSW 11.5 mph 18.4 mph N/A Snow Light Snow
10:34 PM 31.5 °F 21.8 °F 26.4 °F 82% 29.85 in 10.0 mi SW 12.7 mph 21.9 mph N/A Snow Light Snow
10:55 PM 31.8 °F 22.8 °F 26.8 °F 82% 29.85 in 10.0 mi SW 11.5 mph 17.3 mph N/A   Overcast
11:15 PM 31.1 °F 23.7 °F 27.5 °F 87% 29.84 in 4.0 mi SSW 8.1 mph - N/A Snow Light Snow
11:35 PM 30.2 °F 22.6 °F 28.4 °F 93% 29.84 in 3.0 mi South 8.1 mph - N/A Snow Light Snow
11:55 PM 30.2 °F 22.6 °F 28.4 °F 93% 29.83 in 3.0 mi South 8.1 mph - N/A Snow Light Snow